Regional Weather Roundup
Issued by NWS

Home | Current Version | Previous Version | Graphics & Text | Print | Product List | Glossary On
Versions: 1 2 3 4 5 6 7 8 9 10 11 12 13 14 15 16 17 18 19 20 21 22 23 24 25 26 27 28 29 30 31 32 33 34 35 36 37 38 39 40 41 42 43 44 45 46 47 48 49 50
000
ASUS43 KMKX 180100
RWRWI

WISCONSIN REGIONAL WEATHER ROUNDUP
NATIONAL WEATHER SERVICE MILWAUKEE/SULLIVAN WI
800 PM CDT WED SEP 17 2014

NOTE: "FAIR" INDICATES FEW OR NO CLOUDS BELOW 12,000 FEET WITH NO
SIGNIFICANT WEATHER AND/OR OBSTRUCTIONS TO VISIBILITY.

WIZ001-002-006>008-014>016-023>028-180200-
NORTHWEST WISCONSIN

CITY           SKY/WX    TMP DP  RH WIND       PRES   REMARKS
SUPERIOR ARPT  CLOUDY    47  43  84 E15       30.08R
ASHLAND        CLOUDY    46  41  82 NE14      30.11R
HAYWARD        CLOUDY    47  44  90 NE14      30.06R
SIREN          CLEAR     58  50  74 E10G16    30.00R
RICE LAKE      CLEAR     59  53  78 CALM      29.98S
LADYSMITH      CLEAR     58  51  79 NE6       30.01R
EAU CLAIRE     NOT AVBL
MENOMONIE      CLEAR     61  55  81 CALM      29.97R
NEW RICHMOND   CLEAR     60  52  75 CALM      29.97S
OSCEOLA        CLEAR     60  55  84 S3        29.99S
$$

WIZ003>005-009-010-017-018-180200-
NORTH CENTRAL WISCONSIN

CITY           SKY/WX    TMP DP  RH WIND       PRES   REMARKS
WOODRUFF       MOCLDY    55  48  77 NE5       30.03R
RHINELANDER    PTCLDY    53  47  79 NE6       30.03R
EAGLE RIVER    CLOUDY    50  43  78 N12       30.03R
LAND O LAKES   CLOUDY    47  43  87 NE8       30.06R
PHILLIPS       MOCLDY    54  48  80 N3        30.01R
TOMAHAWK       CLEAR     56  49  77 N6        30.01R
MEDFORD          N/A     52  50  93 CALM      29.98R FOG
MERRILL        CLOUDY    60  53  78 CALM      29.97S
$$

WIZ029-030-035-036-043>047-180200-
CENTRAL WISCONSIN

CITY           SKY/WX    TMP DP  RH WIND       PRES   REMARKS
WAUSAU         CLEAR     59  51  75 CALM      29.97R
MOSINEE        CLEAR     59  54  82 SW5       29.99R
MARSHFIELD     CLEAR     59  52  77 SW3       29.98R
STEVENS POINT  CLEAR     58  50  74 CALM      29.98S
WAUPACA        CLEAR     60  52  74 CALM      29.98R
WAUTOMA        NOT AVBL
WISC RAPIDS    CLEAR     55  53  93 CALM      29.99R
CAMP DOUGLAS   NOT AVBL
$$

WIZ011>013-019>022-031-037>040-048>050-180200-
NORTHEAST WISCONSIN

CITY           SKY/WX    TMP DP  RH WIND       PRES   REMARKS
ANTIGO         MOCLDY    56  50  82 CALM      29.98R
STURGEON BAY   CLEAR     55  48  76 NE17      30.00R
GREEN BAY      CLEAR     57  53  86 CALM      29.97R
MANITOWOC      CLEAR     57  52  82 S3        29.98R HAZE
APPLETON       PTCLDY    57  48  72 W5        29.98R
CLINTONVILLE   CLEAR     57  50  77 CALM      29.96R
OSHKOSH        CLEAR     58  50  75 S3        29.98R
$$

WIZ032>034-041-042-053>061-180200-
SOUTHWEST WISCONSIN

CITY           SKY/WX    TMP DP  RH WIND       PRES   REMARKS
LA CROSSE      CLEAR     61  55  81 SE6       29.97R
SPARTA         CLEAR     57  53  84 CALM      29.99R
VIROQUA        FAIR      56  52  85 CALM      30.00R
BOSCOBEL       CLEAR     57  54  89 CALM      29.99R
PRAIRIE DU CHI CLEAR     60  54  81 CALM      29.98R
PLATTEVILLE    FAIR      58  53  80 CALM      29.99S
$$

WIZ056-057-062-063-064-067-068-180200-
SOUTH CENTRAL WISCONSIN

CITY           SKY/WX    TMP DP  RH WIND       PRES   REMARKS
BARABOO/DELLS  CLEAR     57  51  79 CALM      29.99R
LONE ROCK      NOT AVBL
WATERTOWN      CLEAR     55  52  88 CALM      29.99R
MADISON        PTCLDY    58  53  84 CALM      29.99R
MIDDLETON      CLOUDY    60  55  84 CALM      30.00R
MONROE         CLEAR     63  52  67 NE3       29.98S
JANESVILLE     CLEAR     61  52  72 CALM      29.98R
$$

WIZ051-052-058>065-066-070>072-180200-
SOUTHEAST WISCONSIN

CITY           SKY/WX    TMP DP  RH WIND       PRES   REMARKS
MILWAUKEE      PTCLDY    58  48  69 S6        30.00R
WAUKESHA       CLEAR     55  48  76 CALM      30.00R
MILWAUKEE/TIMM CLEAR     59  46  63 S5        30.00R
RACINE         CLEAR     58  48  69 SE3       30.01R
BURLINGTON     CLEAR     52  49  90 CALM      29.99R
KENOSHA        CLEAR     56  49  77 S5        30.00R
FOND DU LAC    CLEAR     58  50  75 SW5       29.99R
SHEBOYGAN      CLEAR     54  49  83 S5        29.99R
WEST BEND      CLEAR     55  48  76 SE6       29.99R
JUNEAU         CLEAR     58  51  78 CALM      30.00R
$$

LSZ147-162-180200-
LAKE SUPERIOR

STATION/POSITION TIME  TEMP    WIND        PRES    WAVE
                       AIR SEA DIR/SP/G            HT/PER
                 (UTC) (F)     (DEG/KT/KT) (MB)    (FT/S)
W MID LAKE BUOY  2350   44 47   80/ 16/ 17 1019.9R   4/ 6
DEVILS ISLAND    0000   45      70/ 22/ 23 1019.9R
PORT WING        0040   48      60/  8/ 14 1019.3R
SAXON HARBOR     0000   49      50/ 20/ 24 1018.3S
$$

LMZ867-665-643>646-180200-
LAKE MICHIGAN

STATION/POSITION TIME  TEMP    WIND        PRES    WAVE
                       AIR SEA DIR/SP/G            HT/PER
                 (UTC) (F)     (DEG/KT/KT) (MB)    (FT/S)
N MID LAKE BUOY  2350   55 58   10/ 19/ 23 1015.3R   2/ 4
NORTHPORT PIER   0000   55      20/ 15/ 20 1015.9R
SISTER BAY       2312           20/ 14/ 21   N/A
KEWAUNEE LAKESHO 0000   56     180/  6/  7 1013.4R
SHEBOYGAN LAKESH 0000   60 49  190/ 11/ 12 1015.3R
PORT WASHINGTON  0040   60     220/  4/  8 1015.9R
ATWATER BUOY     0000   60     170/  8/ 10 1016.4R
MILWAUKEE LAKESH 0000   59     160/  7/  8   N/A
S MID LAKE BUOY  2350   62 63  150/  4/  6 1015.8R   1
KENOSHA   LAKESH 0000   62     160/  9/ 10 1015.2R
$$

TC  - TEMPERATURE IN CELSIUS
VSB - VISIBILITY IN STATUTE MILES
WCI - WIND CHILL INDEX
HX  - HEAT INDEX




USA.gov is the U.S. government's official web portal to all federal, state and local government web resources and services.